Probability
35 38 39 37 37 36 33 31 31 32 33 34 33 31 30 29 27 27 28 27 25 23 21 20 19 19 19 18 15 13 14 16 15 12 12 15 17 15 11 8 8 7 6
38 40 41 40 40 39 37 36 36 36 36 35 33 31 29 28 27 27 26 25 24 23 22 21 20 19 19 18 16 14 13 14 13 11 11 14 16 16 13 11 9 7 7
38 39 41 43 43 42 41 41 42 40 38 36 33 30 27 25 24 24 23 22 22 22 22 22 21 20 21 20 18 16 14 13 14 11 10 11 13 15 16 13 10 8 8
36 37 41 44 44 43 43 43 43 41 38 35 34 31 27 22 18 17 18 18 18 19 20 20 19 18 18 18 17 16 15 15 15 12 9 8 11 14 14 13 11 10 9
38 40 43 46 45 43 42 42 43 40 37 35 32 29 24 18 13 12 13 14 15 16 17 17 16 13 10 9 10 11 12 13 14 13 9 8 10 13 13 12 10 10 10
44 43 45 45 43 40 38 38 39 39 37 34 30 25 20 13 9 9 10 11 12 13 14 14 13 9 5 3 3 3 5 8 11 12 10 8 10 12 12 12 10 10 10
44 44 44 43 40 37 34 33 34 34 33 31 29 25 18 11 7 6 6 8 10 12 12 13 12 10 6 3 2 3 5 6 6 8 10 9 8 10 12 12 11 11 11
43 43 42 40 37 35 33 30 29 28 29 29 28 25 18 11 6 4 4 6 9 11 12 12 12 10 7 4 4 6 8 8 5 5 6 7 5 6 8 10 11 11 12
42 42 41 38 34 32 32 31 28 26 27 28 26 23 18 10 4 2 2 6 9 10 12 11 11 9 6 4 4 7 8 8 6 5 4 5 4 3 4 8 11 13 12
40 40 39 36 33 32 32 32 29 26 25 24 23 22 19 12 5 1 2 5 8 11 12 10 7 6 3 2 3 5 6 6 7 7 6 6 5 3 3 6 11 13 13
39 39 38 35 32 32 33 32 29 26 24 23 22 22 22 17 7 2 1 3 6 9 10 8 5 2 1 1 1 2 4 5 6 7 7 6 5 4 4 7 10 13 12
42 42 40 35 30 30 33 32 28 26 24 22 21 21 21 18 10 4 1 1 3 5 6 5 3 1 0 0 0 0 1 2 3 4 4 5 4 5 5 7 10 11 11
45 46 41 34 28 29 30 29 26 24 22 20 18 16 16 16 12 7 3 1 1 2 3 2 1 0 0 0 0 0 0 1 2 3 3 4 5 5 6 7 9 11 12
46 45 39 33 29 29 29 27 24 22 21 20 18 15 15 15 13 9 6 4 3 3 2 1 1 1 1 1 1 1 1 3 3 4 3 3 4 5 6 6 7 9 11
44 40 35 31 29 28 26 23 21 19 17 17 17 17 16 13 9 7 6 6 5 4 3 2 3 3 3 2 2 2 3 4 5 4 3 3 3 3 4 4 5 6 7
42 38 32 30 29 27 23 20 18 14 9 7 10 12 12 8 3 2 2 3 3 3 3 5 5 5 4 4 4 3 3 3 3 3 2 1 1 1 2 3 4 4 4
40 37 31 29 28 26 23 21 19 14 7 3 3 4 4 2 0 0 0 0 0 1 3 6 8 6 5 5 4 4 3 2 3 3 2 1 1 1 2 3 3 3 3
34 31 28 27 26 25 24 24 22 17 12 8 4 2 1 0 0 0 0 1 1 1 2 5 6 5 4 4 4 4 4 4 4 4 3 2 2 2 3 3 3 3 2
26 25 23 23 22 22 22 22 21 17 15 12 8 3 1 0 0 0 0 1 2 1 1 1 2 2 3 3 4 5 5 4 4 3 3 2 2 2 2 3 2 1 1
20 19 19 19 18 19 19 18 16 14 13 11 8 4 1 0 0 0 1 2 2 1 0 0 0 1 2 4 5 5 4 2 2 2 2 1 1 1 2 2 2 1 1
15 15 16 17 16 16 15 14 12 11 10 9 7 4 1 0 0 0 1 2 2 1 1 1 1 1 2 3 3 2 1 0 1 2 2 1 1 2 3 3 2 2 2
12 13 14 14 14 12 10 9 8 7 7 7 6 3 1 0 0 0 1 3 3 3 2 2 2 2 2 2 1 0 0 0 0 1 1 1 1 2 3 2 1 1 1
10 11 12 11 10 8 6 5 5 4 4 5 5 3 1 0 0 0 1 2 3 3 3 3 3 3 3 2 1 0 0 0 0 0 0 0 1 1 1 1 0 0 0
8 8 9 8 7 6 5 4 4 2 1 2 3 2 0 0 0 0 0 1 3 3 4 4 4 4 3 3 2 1 0 0 0 0 0 0 0 0 0 0 0 0 0
6 7 7 6 6 6 6 6 4 2 1 1 3 3 1 0 0 0 0 1 2 3 4 5 5 5 4 3 2 1 0 0 0 0 0 0 0 0 0 0 0 0 0
6 6 6 6 6 6 6 6 4 3 2 2 4 4 2 1 0 0 0 0 1 3 4 5 6 6 4 3 2 1 0 0 0 0 0 0 0 0 0 0 0 0 0
Wind_Speed
7 6 5 5 5 4 3 2 2 2 2 2 1 1 1 1 1 1 2 1 1 1 0 1 1 0 0 0 0 0 0 1 2 1 1 2 3 3 3 3 4 4 4
7 6 6 5 5 5 4 3 3 3 2 2 2 1 1 2 1 1 1 1 1 1 1 1 0 0 0 0 0 0 0 1 2 1 1 1 2 3 3 3 3 4 4
8 7 7 6 5 4 4 3 3 2 2 2 2 2 2 2 1 1 1 1 1 1 1 1 0 1 1 0 0 0 0 0 1 2 1 1 1 2 2 2 2 2 3
8 8 6 6 5 5 4 4 3 2 2 2 2 2 2 2 1 1 1 0 1 1 1 1 1 1 1 1 0 0 0 0 1 2 2 1 1 1 2 2 1 1 2
7 6 6 6 5 4 4 4 4 3 3 2 2 2 2 2 1 1 1 1 1 1 1 2 2 3 3 2 1 1 1 0 1 1 1 1 1 1 2 2 2 2 2
7 7 6 6 6 5 4 4 4 3 3 2 2 2 2 2 3 4 3 1 1 1 1 1 2 3 4 4 4 3 2 0 0 1 1 1 2 1 1 1 1 1 1
7 7 6 6 6 5 5 5 4 3 3 2 2 3 4 3 4 4 4 1 0 1 1 1 0 2 2 1 1 1 1 0 1 1 1 2 2 2 2 2 1 2 2
7 7 7 6 5 5 5 4 4 3 3 2 2 3 3 2 2 2 4 2 1 1 1 1 1 1 1 1 0 1 0 1 1 2 2 2 2 1 2 2 2 1 1
7 7 7 6 6 5 5 4 4 3 3 3 3 3 3 3 1 1 2 1 1 1 1 1 2 2 2 2 0 1 0 1 1 0 1 2 2 2 1 0 1 1 2
6 6 6 6 6 5 5 4 4 3 3 3 3 3 4 4 3 2 1 2 1 1 1 2 3 2 2 1 1 1 1 2 1 1 1 2 2 2 2 1 2 2 1
5 5 5 5 5 5 4 4 3 3 3 3 3 3 3 4 4 3 2 2 2 2 2 2 2 2 2 1 2 2 2 3 3 2 2 2 2 1 1 2 2 2 2
5 5 5 5 5 5 5 4 4 4 4 3 3 3 3 4 4 4 3 2 2 2 1 1 2 3 2 2 2 3 4 4 3 2 2 2 2 2 2 2 2 2 2
5 5 5 5 4 4 6 5 5 4 4 4 4 4 3 3 3 4 4 2 2 1 0 1 1 3 3 3 5 5 4 3 2 2 2 2 2 2 2 2 2 2 2
5 5 5 5 5 4 3 4 4 4 4 4 3 3 3 3 3 3 3 2 2 2 1 2 3 5 5 4 4 4 3 3 2 2 1 1 1 1 1 1 1 2 2
5 5 5 5 5 4 4 2 3 2 3 3 3 3 3 3 3 4 2 2 2 1 1 2 2 2 3 3 3 3 3 3 3 2 2 1 1 1 1 1 1 1 2
5 5 5 5 5 5 4 3 3 2 4 4 3 2 2 4 6 6 4 3 2 3 2 3 3 3 3 3 3 2 2 2 2 2 2 2 2 2 2 1 1 2 2
5 5 4 4 5 5 5 5 4 2 3 3 3 4 5 6 5 4 3 2 2 3 3 3 3 3 3 3 3 3 3 3 2 2 2 2 2 2 2 2 1 2 2
4 4 3 3 3 4 4 4 5 5 4 3 2 4 6 6 6 4 4 3 2 3 4 3 3 3 3 3 3 2 2 2 2 2 2 2 2 2 2 2 2 2 2
2 2 2 2 2 2 2 3 3 3 3 4 4 3 4 5 4 4 4 3 4 4 4 3 3 2 2 2 2 2 2 2 2 2 2 2 2 2 2 2 2 2 3
2 2 2 2 2 2 2 2 2 2 2 2 3 3 4 4 3 4 4 4 4 4 3 3 3 3 2 1 1 1 1 1 2 2 2 2 2 3 3 3 2 2 2
2 2 3 2 2 2 2 2 2 2 2 1 1 2 5 4 4 4 4 4 4 4 3 3 3 2 2 2 1 2 2 2 2 2 2 2 2 2 2 2 2 2 2
1 1 2 2 1 1 1 1 1 2 2 2 2 3 6 4 3 3 3 3 3 3 2 2 2 1 1 1 1 1 2 2 2 2 1 1 1 2 2 2 2 2 2
1 1 1 2 2 2 2 2 2 2 2 3 2 3 4 4 3 3 3 2 2 2 1 1 1 1 0 1 1 0 1 1 1 1 0 1 1 1 1 1 2 2 2
2 2 1 1 2 2 2 2 3 3 3 3 3 3 3 3 3 3 2 2 2 2 1 1 1 1 1 0 1 1 0 1 1 1 0 1 1 1 2 2 2 2 2
2 2 2 2 2 2 2 2 2 3 3 3 3 3 3 3 3 2 2 2 2 2 2 1 1 1 1 1 0 0 1 1 1 1 0 1 1 1 2 2 2 2 2
2 2 2 2 2 2 2 2 2 3 3 2 2 1 2 2 2 2 2 2 2 2 2 2 2 3 2 1 1 1 1 2 1 0 1 1 2 2 2 2 3 3 3
Wind_Direction
173 165 161 161 164 166 172 163 146 138 134 139 134 133 146 156 164 156 151 143 143 129 155 137 136 75 345 291 14 44 78 113 141 153 109 128 122 129 147 172 156 151 146
163 161 165 165 168 170 169 156 144 153 153 143 139 142 146 118 107 124 130 122 129 129 116 101 107 94 90 311 339 7 37 107 140 151 127 121 139 155 162 180 157 156 152
165 165 169 170 167 165 159 150 149 149 144 132 121 114 101 99 105 107 109 112 109 100 84 77 34 34 12 22 192 250 231 150 139 157 170 163 159 162 159 170 150 149 157
165 165 165 164 160 159 157 153 147 139 130 128 135 133 122 108 90 84 108 118 98 90 85 79 54 41 5 320 22 287 220 200 170 167 167 160 157 188 166 172 170 174 171
157 156 155 152 150 149 148 140 137 142 139 126 126 124 130 124 80 54 181 165 154 152 110 88 77 71 59 39 21 30 38 48 136 144 165 162 177 184 211 201 181 169 171
157 157 157 156 153 149 145 143 141 133 125 129 128 103 89 76 55 43 26 57 139 142 135 138 138 118 90 71 56 43 38 59 170 163 205 209 207 211 235 219 184 187 204
153 154 155 156 154 154 156 147 146 136 131 133 117 109 98 76 49 38 19 315 190 132 156 218 227 102 99 92 79 49 30 58 177 184 227 235 229 220 213 220 209 211 218
160 161 158 157 156 155 150 147 148 145 147 141 133 124 126 119 72 42 355 288 190 137 125 90 85 82 39 23 44 67 27 351 219 217 231 248 256 248 229 216 210 216 222
167 162 159 158 156 159 159 162 164 161 159 165 164 159 152 150 165 85 350 278 182 175 145 103 125 113 63 16 217 173 236 303 8 88 212 217 237 256 237 227 235 203 238
166 161 158 160 160 166 168 170 170 170 176 178 173 181 172 166 181 184 276 269 220 186 161 130 99 116 103 43 292 263 264 285 288 250 233 215 212 207 218 209 212 219 230
158 157 161 162 164 168 164 162 166 179 189 194 189 185 174 160 167 186 205 258 270 232 192 156 142 142 161 253 265 266 262 279 274 251 223 206 191 186 201 202 209 220 223
159 162 163 165 177 174 165 174 187 192 198 199 196 192 178 164 169 181 190 223 287 282 260 141 157 182 211 249 248 254 273 284 267 253 212 211 204 204 206 209 208 216 226
160 162 162 165 173 177 178 184 196 195 204 203 199 199 184 169 162 173 191 219 254 262 319 98 211 231 246 250 236 240 255 262 260 257 240 230 207 201 204 208 207 205 231
164 163 165 171 175 173 182 190 196 194 203 206 204 202 184 167 168 178 189 198 204 210 223 216 229 237 245 251 247 238 234 246 256 258 256 244 221 205 206 212 219 204 224
171 169 179 184 175 175 178 188 206 182 202 200 207 199 185 177 163 157 181 202 206 198 202 228 231 225 230 232 231 226 228 224 231 244 246 252 247 236 227 211 223 225 233
179 179 188 192 179 179 174 160 67 100 114 114 107 123 116 131 147 146 149 158 173 166 192 228 230 230 230 227 228 223 222 227 238 247 237 228 238 240 242 233 227 238 245
187 185 196 197 184 186 187 183 171 133 100 107 124 131 137 146 144 147 149 153 185 175 212 236 240 240 240 230 221 222 221 215 219 235 243 247 252 245 235 231 235 250 255
197 198 209 201 190 198 201 199 188 184 176 179 168 164 157 161 163 165 156 145 196 208 227 238 244 247 245 233 225 228 229 218 214 224 227 236 244 248 247 240 228 240 257
209 207 209 219 212 212 206 200 192 190 189 182 157 163 179 174 171 191 185 217 235 227 223 236 245 243 243 240 232 229 228 226 221 227 232 235 239 244 249 251 247 253 255
211 214 213 222 219 212 202 203 206 196 202 190 184 170 157 173 195 198 208 226 239 241 234 231 235 241 235 227 215 205 230 240 236 233 237 236 239 245 250 250 248 246 249
226 203 209 238 240 220 215 216 211 214 224 219 197 161 167 195 216 215 210 221 233 241 243 247 242 226 209 190 199 224 234 238 237 241 243 242 248 255 261 261 258 255 252
231 212 204 229 242 227 225 228 230 220 213 209 191 170 172 200 223 230 224 221 226 238 253 258 255 244 194 192 202 225 244 257 253 247 237 246 249 257 261 261 265 269 269
267 230 198 200 211 200 218 242 247 240 234 231 212 189 185 207 220 227 225 213 216 232 244 260 275 280 210 160 143 152 240 273 289 313 287 287 288 275 265 263 263 268 270
280 281 271 240 235 237 234 239 245 249 243 236 222 201 191 204 227 236 226 217 216 224 233 251 272 284 287 181 121 154 272 298 297 306 252 255 262 270 263 240 238 246 241
260 262 264 263 249 246 251 249 244 247 251 245 231 217 210 209 221 224 218 217 225 220 228 232 236 250 260 241 178 117 94 94 41 352 278 244 249 263 268 263 256 257 253
270 272 269 267 263 249 245 247 250 252 256 260 248 233 227 220 216 214 213 218 226 229 225 214 207 214 222 216 200 159 137 139 147 272 277 258 253 258 265 267 264 256 252